{"data":{"norad_id":45419,"intl_designator":"2020-019BM","name":"STARLINK-1308","alt_names":[],"object_type":"PAYLOAD","status":"ACTIVE","operator":null,"country":"US","launch_date":"2020-03-18","launch_site_code":"AFETR","launch_vehicle":null,"mission":null,"orbit_class":"UNKNOWN","rcs_meters":null,"size_class":null,"mass_kg":null,"dimensions":null,"purposes":["comms"],"wikipedia_slug":null,"has_3d_model":false,"image_url":null,"decayed_at":null,"tle_current":{"epoch":"2026-09-19T18:43:19.337952Z","epoch_age_seconds":76726,"freshness":"FRESH","line1":"1 45419U 20019BM  26262.78008493  .00064907  00000+0  39574-3 0  9998","line2":"2 45419  53.0407 279.0651 0007209  24.4036 335.7323 15.76797477360073","mean_motion":15.76797477,"eccentricity":0.0007209,"inclination_deg":53.0407,"raan_deg":279.0651,"arg_perigee_deg":24.4036,"mean_anomaly_deg":335.7323,"bstar":0.00039574,"rev_number":36007,"period_min":91.324347039147,"perigee_km":334.6783516797,"apogee_km":344.36387114474,"semimajor_km":6717.6581114122,"source":"CELESTRAK","updated_at":"2026-09-20T09:00:38.444933Z"}}}